Home   Weather   Vilnius   Past weeks

Flag for Lithuania Past Weather in Vilnius, Lithuania — Yesterday and Last 2 Weeks

Now
43 °F

Fog.


Feels Like: 40 °F
Forecast: 54 / 62 °F
Wind: 5 mph from South

Location: Vilnius Airport

Current Time: Sep 28, 2016 at 10:06:06 AM

Latest Report: Sep 28, 2016 at 9:20 AM


Visibility: 0 mi

Pressure: 30.21 "Hg

Humidity: 100%

Dew Point: 43 °F

Location of VilniusLocation

Past Weather in Vilnius — Graph

°F

Vilnius Temperature Yesterday

Maximum temperature yesterday: 59 °F (at 2:50 PM)
Minimum temperature yesterday: 45 °F (at 3:20 AM)
Average temperature yesterday: 51 °F

High & Low Weather Summary for the Past Weeks

 TemperatureHumidityPressure
High66 °F (Sep 13, 4:50 PM)100% (Sep 13, 8:50 AM)30.36 "Hg (Sep 13, 8:50 AM)
Low39 °F (Sep 18, 6:50 AM)46% (Sep 14, 4:50 PM)29.95 "Hg (Sep 20, 4:20 AM)
Average51 °F79%30.12 "Hg
* Reported Sep 13 8:02 AM — Sep 28 8:53 AM, Vilnius, Weather by CustomWeather, © 2016

Note: Actual official high and low records may vary slightly from our data, if they occured in-between our weather recording intervals... More about our weather records

Advertising

Vilnius Weather History for the Previous 24 Hours

Scroll right to see more
 ConditionsComfort  
Time TempWeatherWind HumidityBarometerVisibility
8:53 AM
Wed, Sep 28
43 °FFog.5 mph93%30.21 "Hg0 mi
8:20 AM41 °FFog.5 mph100%30.24 "Hg1 mi
7:50 AM41 °FFog.5 mph100%30.24 "Hg2 mi
7:20 AM41 °FFog.3 mph100%30.27 "Hg1 mi
6:54 AM39 °FFog.5 mph100%30.27 "Hg0 mi
6:20 AM39 °FFog.5 mph100%30.27 "Hg0 mi
5:50 AM39 °FFog.3 mph100%30.27 "Hg0 mi
5:20 AM39 °FFog.3 mph100%30.27 "Hg0 mi
5:02 AM39 °FFog.2 mph93%30.30 "Hg1 mi
4:20 AM41 °FFog.1 mph93%30.30 "Hg1 mi
3:50 AM41 °FFog.1 mph100%30.30 "Hg2 mi
3:20 AM43 °FFog.1 mph100%30.30 "Hg3 mi
2:50 AM43 °FPassing clouds.1 mph100%30.30 "Hg4 mi
2:20 AM43 °FFog.1 mph93%30.33 "Hg2 mi
1:50 AM43 °FFog.2 mph93%30.33 "Hg1 mi
1:20 AM46 °FFog.1 mph93%30.33 "Hg3 mi
12:50 AM46 °FFog.1 mph100%30.33 "Hg0 mi
12:20 AM45 °FFog.No wind100%30.33 "Hg2 mi
11:52 PM
Tue, Sep 27
45 °FFog.1 mph93%30.33 "Hg2 mi
11:20 PM48 °FFog.2 mph94%30.33 "Hg0 mi
11:02 PM48 °FFog.1 mph94%30.33 "Hg1 mi
10:20 PM48 °FClear.1 mph94%30.33 "Hg10 mi
9:50 PM48 °FClear.1 mph94%30.33 "Hg5 mi
9:20 PM48 °FClear.1 mph94%30.33 "Hg4 mi
8:50 PM50 °FClear.1 mph94%30.33 "Hg10 mi
8:20 PM50 °FPassing clouds.3 mph88%30.36 "HgN/A
7:50 PM54 °FClear.5 mph82%30.36 "Hg10 mi
7:20 PM54 °FClear.5 mph82%30.33 "Hg10 mi
6:50 PM55 °FPassing clouds.3 mph72%30.33 "HgN/A
6:20 PM57 °FPartly sunny.5 mph67%30.33 "HgN/A
5:50 PM59 °FPassing clouds.6 mph63%30.33 "HgN/A
5:20 PM59 °FPassing clouds.5 mph59%30.33 "HgN/A
4:50 PM59 °FBroken clouds.3 mph63%30.33 "HgN/A
4:20 PM59 °FPartly sunny.2 mph59%30.33 "HgN/A
3:50 PM59 °FPartly sunny.3 mph63%30.33 "HgN/A
3:20 PM59 °FPartly sunny.5 mph59%30.36 "HgN/A
2:50 PM59 °FBroken clouds.2 mph59%30.36 "HgN/A
2:20 PM57 °FPartly sunny.5 mph67%30.36 "HgN/A
1:50 PM57 °FPartly sunny.5 mph67%30.36 "HgN/A
1:20 PM55 °FPartly sunny.8 mph72%30.36 "HgN/A
12:50 PM57 °FScattered clouds.6 mph67%30.36 "HgN/A
12:20 PM55 °FScattered clouds.6 mph67%30.36 "HgN/A
11:50 AM55 °FScattered clouds.6 mph67%30.36 "HgN/A
11:20 AM54 °FPartly sunny.5 mph67%30.36 "HgN/A
10:50 AM52 °FBroken clouds.5 mph72%30.36 "HgN/A
10:20 AM52 °FPartly sunny.7 mph72%30.36 "HgN/A
Weather by CustomWeather, © 2016

See weather overviewHow to use our weather pages